TimeCDT,TemperatureF,Dew PointF,Humidity,Sea Level PressureIn,VisibilityMPH,Wind Direction,Wind SpeedMPH,Gust SpeedMPH,PrecipitationIn,Events,Conditions,WindDirDegrees,DateUTC
12:48 AM,48.2,30.2,50,30.30,10.0,Calm,Calm,-,N/A,,Clear,0,2012-10-06 05:48:00
4:11 AM,42.8,26.6,53,30.28,10.0,Calm,Calm,-,N/A,,Clear,0,2012-10-06 09:11:00
4:42 AM,39.2,26.6,61,30.28,10.0,Calm,Calm,-,N/A,,Clear,0,2012-10-06 09:42:00
5:43 AM,41.0,28.4,61,30.28,10.0,SSW,9.2,-,N/A,,Clear,200,2012-10-06 10:43:00
6:49 AM,39.2,26.6,61,30.28,10.0,SSW,4.6,-,N/A,,Clear,200,2012-10-06 11:49:00
7:49 AM,35.6,26.6,70,30.29,10.0,South,4.6,-,N/A,,Clear,190,2012-10-06 12:49:00
8:49 AM,46.4,33.8,62,30.30,10.0,South,4.6,-,N/A,,Clear,180,2012-10-06 13:49:00
9:49 AM,60.8,37.4,42,30.31,10.0,Calm,Calm,-,N/A,,Clear,0,2012-10-06 14:49:00
11:01 AM,69.8,39.2,33,30.30,10.0,Calm,Calm,-,N/A,,Clear,0,2012-10-06 16:01:00
12:50 PM,75.2,32.0,21,30.28,10.0,SSW,5.8,17.3,N/A,,Clear,210,2012-10-06 17:50:00
1:45 PM,78.8,32.0,18,30.25,10.0,NNW,9.2,-,N/A,,Clear,340,2012-10-06 18:45:00
2:45 PM,78.8,32.0,18,30.21,10.0,WNW,6.9,-,N/A,,Clear,300,2012-10-06 19:45:00
3:42 PM,80.6,32.0,17,30.19,10.0,NW,11.5,-,N/A,,Clear,310,2012-10-06 20:42:00
4:40 PM,78.8,30.2,17,30.18,10.0,Calm,Calm,-,N/A,,Clear,0,2012-10-06 21:40:00
5:40 PM,78.8,30.2,17,30.17,10.0,North,4.6,-,N/A,,Clear,350,2012-10-06 22:40:00
6:40 PM,75.2,28.4,18,30.17,10.0,NNW,4.6,-,N/A,,Clear,340,2012-10-06 23:40:00
7:41 PM,68.0,23.0,18,30.18,10.0,North,5.8,-,N/A,,Clear,10,2012-10-07 00:41:00
8:40 PM,60.8,23.0,23,30.19,10.0,East,8.1,-,N/A,,Clear,100,2012-10-07 01:40:00
9:41 PM,57.2,23.0,27,30.21,10.0,East,8.1,-,N/A,,Clear,100,2012-10-07 02:41:00
10:41 PM,51.8,28.4,41,30.22,10.0,North,4.6,-,N/A,,Clear,10,2012-10-07 03:41:00
11:42 PM,51.8,26.6,38,30.24,10.0,SW,6.9,-,N/A,,Clear,220,2012-10-07 04:42:00